| time (UTC) | temp C | wind direction | speed KPH | gust KPH | rain 1hr cm | rain 24hr cm | rain mn cm | humidity % | barometer mb |
| 20260508094216 | 15 | 308 | 1.6 | 4.8 | 0.00 | 0.00 | 0.00 | 88 | 1014.5 |
| 20260508093708 | 15 | 288 | 3.2 | 6.4 | 0.00 | 0.00 | 0.00 | 88 | 1014.5 |
| 20260508093201 | 15 | 283 | 4.8 | 6.4 | 0.00 | 0.00 | 0.00 | 89 | 1014.5 |
| 20260508091637 | 15 | 264 | 0.0 | 3.2 | 0.00 | 0.00 | 0.00 | 90 | 1014.5 |
| 20260508091131 | 15 | 244 | 1.6 | 3.2 | 0.00 | 0.00 | 0.00 | 90 | 1014.5 |
| 20260508090622 | 15 | 242 | 1.6 | 3.2 | 0.00 | 0.00 | 0.00 | 90 | 1014.8 |
| 20260508090115 | 15 | 243 | 3.2 | 3.2 | 0.00 | 0.00 | 0.00 | 89 | 1014.5 |
| 20260508085608 | 15 | 266 | 1.6 | 1.6 | 0.00 | 0.00 | 0.00 | 89 | 1014.5 |
| 20260508085100 | 15 | 267 | 0.0 | 1.6 | 0.00 | 0.00 | 0.00 | 89 | 1014.8 |
| 20260508084552 | 15 | 270 | 1.6 | 1.6 | 0.00 | 0.00 | 0.00 | 89 | 1014.5 |
| 20260508084045 | 15 | 271 | 1.6 | 3.2 | 0.00 | 0.00 | 0.00 | 89 | 1014.8 |
| 20260508083537 | 15 | 254 | 1.6 | 3.2 | 0.00 | 0.00 | 0.00 | 89 | 1014.8 |
| 20260508083030 | 15 | 228 | 3.2 | 3.2 | 0.00 | 0.00 | 0.00 | 89 | 1014.8 |
| 20260508082522 | 15 | 255 | 0.0 | 1.6 | 0.00 | 0.00 | 0.00 | 88 | 1014.8 |
| 20260508082014 | 15 | 256 | 0.0 | 1.6 | 0.00 | 0.00 | 0.00 | 88 | 1014.8 |
| 20260508081506 | 15 | 256 | 0.0 | 4.8 | 0.00 | 0.00 | 0.00 | 88 | 1014.8 |
| 20260508080452 | 15 | 150 | 3.2 | 4.8 | 0.00 | 0.00 | 0.00 | 88 | 1015.1 |
| 20260508075436 | 15 | 206 | 3.2 | 6.4 | 0.00 | 0.00 | 0.00 | 88 | 1015.1 |
| 20260508073913 | 15 | 217 | 1.6 | 4.8 | 0.00 | 0.00 | 0.00 | 87 | 1015.1 |
| 20260508073405 | 15 | 204 | 1.6 | 4.8 | 0.00 | 0.00 | 0.00 | 87 | 1015.1 |
| 20260508072858 | 15 | 176 | 4.8 | 4.8 | 0.00 | 0.00 | 0.00 | 87 | 1015.1 |
| 20260508072350 | 15 | 216 | 3.2 | 4.8 | 0.00 | 0.00 | 0.00 | 87 | 1015.1 |
| 20260508071843 | 15 | 267 | 0.0 | 4.8 | 0.00 | 0.00 | 0.00 | 87 | 1015.1 |
| 20260508071335 | 15 | 350 | 0.0 | 3.2 | 0.00 | 0.00 | 0.00 | 88 | 1015.1 |
| 20260508070828 | 15 | 24 | 3.2 | 3.2 | 0.00 | 0.00 | 0.00 | 87 | 1015.1 |
| 20260508065812 | 15 | 294 | 0.0 | 4.8 | 0.00 | 0.00 | 0.00 | 88 | 1015.1 |
| 20260508065307 | 15 | 141 | 1.6 | 4.8 | 0.00 | 0.00 | 0.00 | 88 | 1015.1 |
| 20260508064757 | 15 | 179 | 0.0 | 3.2 | 0.00 | 0.00 | 0.00 | 88 | 1015.1 |
| 20260508064250 | 15 | 178 | 0.0 | 3.2 | 0.00 | 0.00 | 0.00 | 88 | 1015.1 |
| 20260508063234 | 15 | 272 | 0.0 | 4.8 | 0.00 | 0.00 | 0.00 | 88 | 1015.1 |
| 20260508062727 | 15 | 251 | 0.0 | 1.6 | 0.00 | 0.00 | 0.00 | 88 | 1015.1 |
| 20260508062219 | 15 | 252 | 1.6 | 1.6 | 0.00 | 0.00 | 0.00 | 88 | 1014.8 |
| 20260508061713 | 15 | 248 | 0.0 | 3.2 | 0.00 | 0.00 | 0.00 | 88 | 1015.1 |
| 20260508061204 | 15 | 249 | 0.0 | 3.2 | 0.00 | 0.00 | 0.00 | 88 | 1014.8 |
| 20260508060657 | 15 | 199 | 0.0 | 4.8 | 0.00 | 0.00 | 0.00 | 88 | 1014.8 |
| 20260508055642 | 15 | 175 | 6.4 | 11.3 | 0.00 | 0.00 | 0.00 | 88 | 1015.1 |
| 20260508055135 | 15 | 171 | 3.2 | 4.8 | 0.00 | 0.00 | 0.00 | 88 | 1014.8 |
| 20260508054626 | 15 | 132 | 1.6 | 6.4 | 0.00 | 0.00 | 0.00 | 89 | 1014.8 |
| 20260508054119 | 15 | 247 | 0.0 | 9.7 | 0.00 | 0.00 | 0.00 | 88 | 1015.1 |
| 20260508053611 | 15 | 231 | 3.2 | 9.7 | 0.00 | 0.00 | 0.00 | 88 | 1015.1 |
| 20260508053104 | 15 | 174 | 3.2 | 4.8 | 0.00 | 0.00 | 0.00 | 89 | 1014.8 |
| 20260508052556 | 15 | 191 | 3.2 | 4.8 | 0.00 | 0.00 | 0.00 | 89 | 1015.1 |
| 20260508052048 | 15 | 139 | 3.2 | 6.4 | 0.00 | 0.00 | 0.00 | 89 | 1015.1 |
| 20260508051034 | 15 | 224 | 1.6 | 4.8 | 0.00 | 0.00 | 0.00 | 89 | 1015.1 |
| 20260508050525 | 15 | 181 | 3.2 | 4.8 | 0.00 | 0.00 | 0.00 | 89 | 1014.8 |
| 20260508050017 | 15 | 261 | 0.0 | 4.8 | 0.00 | 0.00 | 0.00 | 89 | 1014.8 |
| 20260508045510 | 15 | 295 | 1.6 | 4.8 | 0.00 | 0.00 | 0.00 | 89 | 1014.8 |
| 20260508045002 | 15 | 252 | 3.2 | 6.4 | 0.00 | 0.00 | 0.00 | 89 | 1014.8 |
| 20260508044455 | 15 | 295 | 1.6 | 6.4 | 0.00 | 0.00 | 0.00 | 89 | 1014.8 |
| 20260508043948 | 15 | 274 | 4.8 | 4.8 | 0.00 | 0.00 | 0.00 | 89 | 1014.5 |
| 20260508043440 | 15 | 276 | 3.2 | 4.8 | 0.00 | 0.00 | 0.00 | 89 | 1014.8 |
| 20260508042932 | 15 | 270 | 1.6 | 4.8 | 0.00 | 0.00 | 0.00 | 89 | 1014.5 |
| 20260508042424 | 15 | 313 | 1.6 | 4.8 | 0.00 | 0.00 | 0.00 | 89 | 1014.5 |
| 20260508041917 | 15 | 266 | 1.6 | 4.8 | 0.00 | 0.00 | 0.00 | 89 | 1014.5 |
| 20260508041409 | 15 | 249 | 3.2 | 4.8 | 0.00 | 0.00 | 0.00 | 89 | 1014.5 |
| 20260508040902 | 15 | 245 | 4.8 | 6.4 | 0.00 | 0.00 | 0.00 | 89 | 1014.5 |
| 20260508035846 | 15 | 228 | 3.2 | 6.4 | 0.00 | 0.00 | 0.00 | 89 | 1014.1 |
| 20260508035339 | 15 | 208 | 3.2 | 6.4 | 0.00 | 0.00 | 0.00 | 89 | 1014.1 |
| 20260508034831 | 15 | 246 | 4.8 | 6.4 | 0.00 | 0.00 | 0.00 | 89 | 1014.1 |
| 20260508034324 | 15 | 244 | 4.8 | 9.7 | 0.00 | 0.00 | 0.00 | 89 | 1013.8 |
| 20260508032801 | 15 | 238 | 6.4 | 11.3 | 0.00 | 0.00 | 0.00 | 89 | 1013.8 |
| 20260508031745 | 15 | 282 | 3.2 | 6.4 | 0.00 | 0.00 | 0.00 | 89 | 1013.4 |
| 20260508031238 | 15 | 232 | 3.2 | 9.7 | 0.00 | 0.00 | 0.00 | 89 | 1013.8 |
| 20260508030731 | 15 | 228 | 4.8 | 9.7 | 0.00 | 0.00 | 0.00 | 89 | 1013.4 |
| 20260508030223 | 15 | 227 | 4.8 | 9.7 | 0.00 | 0.00 | 0.00 | 89 | 1013.4 |
| 20260508025715 | 15 | 236 | 3.2 | 12.9 | 0.00 | 0.00 | 0.00 | 89 | 1013.4 |
| 20260508024152 | 15 | 268 | 6.4 | 12.9 | 0.00 | 0.00 | 0.00 | 88 | 1013.4 |
| 20260508023645 | 15 | 260 | 4.8 | 12.9 | 0.00 | 0.00 | 0.00 | 88 | 1013.4 |
| 20260508022629 | 15 | 266 | 3.2 | 12.9 | 0.00 | 0.00 | 0.00 | 87 | 1013.1 |
| 20260508022122 | 15 | 225 | 4.8 | 12.9 | 0.00 | 0.00 | 0.00 | 86 | 1013.1 |
| 20260508021615 | 15 | 228 | 9.7 | 14.5 | 0.00 | 0.00 | 0.00 | 86 | 1013.1 |
| 20260508020600 | 16 | 184 | 9.7 | 11.3 | 0.00 | 0.00 | 0.00 | 83 | 1013.1 |
| 20260508020053 | 16 | 281 | 6.4 | 12.9 | 0.00 | 0.00 | 0.00 | 83 | 1013.1 |
| 20260508015544 | 16 | 268 | 4.8 | 16.1 | 0.00 | 0.00 | 0.00 | 82 | 1013.1 |
| 20260508015037 | 16 | 235 | 6.4 | 16.1 | 0.00 | 0.00 | 0.00 | 83 | 1013.1 |
| 20260508014529 | 16 | 288 | 3.2 | 14.5 | 0.00 | 0.00 | 0.00 | 82 | 1012.8 |
| 20260508014022 | 16 | 281 | 8.0 | 14.5 | 0.00 | 0.00 | 0.00 | 81 | 1012.8 |
| 20260508013006 | 16 | 231 | 9.7 | 16.1 | 0.00 | 0.00 | 0.00 | 82 | 1012.8 |
| 20260508011951 | 17 | 214 | 8.0 | 16.1 | 0.00 | 0.00 | 0.00 | 79 | 1013.1 |
| 20260508011444 | 17 | 228 | 9.7 | 16.1 | 0.00 | 0.00 | 0.00 | 81 | 1013.1 |
| 20260508010429 | 16 | 249 | 8.0 | 20.9 | 0.00 | 0.00 | 0.00 | 82 | 1012.8 |
| 20260508005921 | 16 | 262 | 11.3 | 20.9 | 0.00 | 0.00 | 0.00 | 80 | 1012.8 |
| 20260508005413 | 17 | 230 | 11.3 | 20.9 | 0.00 | 0.00 | 0.00 | 79 | 1012.8 |
| 20260508004905 | 17 | 272 | 14.5 | 20.9 | 0.00 | 0.00 | 0.00 | 78 | 1012.8 |
| 20260508004358 | 17 | 234 | 9.7 | 20.9 | 0.00 | 0.00 | 0.00 | 77 | 1013.1 |
| 20260508003851 | 17 | 216 | 12.9 | 22.5 | 0.00 | 0.00 | 0.00 | 76 | 1012.8 |
| 20260508003342 | 18 | 263 | 11.3 | 22.5 | 0.00 | 0.00 | 0.00 | 75 | 1012.8 |
| 20260508002835 | 18 | 231 | 9.7 | 17.7 | 0.00 | 0.00 | 0.00 | 75 | 1012.8 |
| 20260508002328 | 18 | 266 | 8.0 | 24.1 | 0.00 | 0.00 | 0.00 | 73 | 1012.8 |
| 20260508001819 | 18 | 245 | 6.4 | 24.1 | 0.00 | 0.00 | 0.00 | 72 | 1012.8 |
| 20260508000804 | 18 | 211 | 11.3 | 20.9 | 0.00 | 0.00 | 0.00 | 72 | 1012.8 |
| 20260508000257 | 18 | 243 | 14.5 | 17.7 | 0.00 | 0.00 | 0.00 | 70 | 1012.8 |
| 20260507235750 | 18 | 265 | 14.5 | 22.5 | 0.00 | 0.00 | 0.00 | 69 | 1012.8 |
| 20260507235242 | 18 | 256 | 8.0 | 22.5 | 0.00 | 0.00 | 0.00 | 70 | 1012.8 |
| 20260507234734 | 18 | 182 | 8.0 | 20.9 | 0.00 | 0.00 | 0.00 | 71 | 1013.1 |
| 20260507234226 | 18 | 228 | 14.5 | 20.9 | 0.00 | 0.00 | 0.00 | 71 | 1013.1 |
| 20260507233719 | 18 | 281 | 12.9 | 20.9 | 0.00 | 0.00 | 0.00 | 71 | 1012.8 |
| 20260507233212 | 18 | 207 | 9.7 | 20.9 | 0.00 | 0.00 | 0.00 | 73 | 1013.1 |
| 20260507232703 | 18 | 252 | 9.7 | 20.9 | 0.00 | 0.00 | 0.00 | 73 | 1013.1 |
| 20260507232156 | 18 | 257 | 9.7 | 20.9 | 0.00 | 0.00 | 0.00 | 72 | 1013.1 |
| 20260507231648 | 18 | 230 | 12.9 | 16.1 | 0.00 | 0.00 | 0.00 | 73 | 1013.1 |
| 20260507231141 | 18 | 271 | 9.7 | 16.1 | 0.00 | 0.00 | 0.00 | 72 | 1013.1 |
| 20260507230125 | 18 | 219 | 9.7 | 22.5 | 0.00 | 0.00 | 0.00 | 73 | 1013.1 |
| 20260507225618 | 19 | 196 | 9.7 | 20.9 | 0.00 | 0.00 | 0.00 | 71 | 1013.1 |
| 20260507225110 | 18 | 272 | 9.7 | 20.9 | 0.00 | 0.00 | 0.00 | 75 | 1013.1 |
| 20260507224603 | 18 | 232 | 14.5 | 20.9 | 0.00 | 0.00 | 0.00 | 76 | 1013.1 |
| 20260507224055 | 18 | 235 | 14.5 | 24.1 | 0.00 | 0.00 | 0.00 | 77 | 1013.4 |
| 20260507223548 | 18 | 213 | 20.9 | 24.1 | 0.00 | 0.00 | 0.00 | 75 | 1013.4 |
| 20260507222533 | 18 | 238 | 14.5 | 22.5 | 0.00 | 0.00 | 0.00 | 75 | 1013.4 |
| 20260507222026 | 19 | 199 | 14.5 | 22.5 | 0.00 | 0.00 | 0.00 | 74 | 1013.4 |
| 20260507221518 | 18 | 248 | 9.7 | 22.5 | 0.00 | 0.00 | 0.00 | 73 | 1013.4 |
| 20260507221011 | 19 | 198 | 8.0 | 22.5 | 0.00 | 0.00 | 0.00 | 74 | 1013.4 |
| 20260507220504 | 18 | 197 | 14.5 | 20.9 | 0.00 | 0.00 | 0.00 | 73 | 1013.4 |
| 20260507215957 | 19 | 15 | 14.5 | 22.5 | 0.00 | 0.00 | 0.00 | 72 | 1013.4 |
| 20260507215449 | 18 | 328 | 12.9 | 25.7 | 0.00 | 0.00 | 0.00 | 73 | 1013.4 |
| 20260507214941 | 18 | 246 | 9.7 | 25.7 | 0.00 | 0.00 | 0.00 | 73 | 1013.8 |
| 20260507214434 | 19 | 263 | 6.4 | 20.9 | 0.00 | 0.00 | 0.00 | 72 | 1013.8 |
| 20260507212912 | 19 | 202 | 8.0 | 22.5 | 0.00 | 0.00 | 0.00 | 72 | 1013.8 |
| 20260507211858 | 18 | 274 | 12.9 | 24.1 | 0.00 | 0.00 | 0.00 | 71 | 1014.1 |
| 20260507211351 | 18 | 275 | 11.3 | 24.1 | 0.00 | 0.00 | 0.00 | 74 | 1014.1 |
| 20260507210844 | 19 | 218 | 12.9 | 20.9 | 0.00 | 0.00 | 0.00 | 72 | 1014.1 |
| 20260507210336 | 19 | 258 | 9.7 | 24.1 | 0.00 | 0.00 | 0.00 | 72 | 1014.1 |
| 20260507205829 | 19 | 246 | 14.5 | 24.1 | 0.00 | 0.00 | 0.00 | 73 | 1014.5 |
| 20260507205323 | 19 | 198 | 9.7 | 24.1 | 0.00 | 0.00 | 0.00 | 72 | 1014.5 |
| 20260507204814 | 18 | 297 | 12.9 | 24.1 | 0.00 | 0.00 | 0.00 | 72 | 1014.5 |
| 20260507204307 | 19 | 210 | 9.7 | 20.9 | 0.00 | 0.00 | 0.00 | 70 | 1014.5 |
| 20260507203759 | 18 | 261 | 12.9 | 24.1 | 0.00 | 0.00 | 0.00 | 72 | 1014.5 |
| 20260507203252 | 18 | 147 | 19.3 | 24.1 | 0.00 | 0.00 | 0.00 | 70 | 1014.5 |
| 20260507202745 | 19 | 217 | 19.3 | 20.9 | 0.00 | 0.00 | 0.00 | 71 | 1014.5 |
| 20260507202238 | 19 | 219 | 12.9 | 17.7 | 0.00 | 0.00 | 0.00 | 70 | 1014.5 |
| 20260507201730 | 19 | 213 | 8.0 | 22.5 | 0.00 | 0.00 | 0.00 | 72 | 1014.5 |
| 20260507201223 | 18 | 220 | 14.5 | 22.5 | 0.00 | 0.00 | 0.00 | 73 | 1014.5 |
| 20260507200715 | 18 | 241 | 8.0 | 20.9 | 0.00 | 0.00 | 0.00 | 73 | 1014.5 |
| 20260507200208 | 19 | 189 | 8.0 | 17.7 | 0.00 | 0.00 | 0.00 | 73 | 1014.5 |
| 20260507195701 | 19 | 220 | 14.5 | 17.7 | 0.00 | 0.00 | 0.00 | 70 | 1014.8 |
| 20260507195154 | 19 | 200 | 12.9 | 16.1 | 0.00 | 0.00 | 0.00 | 72 | 1014.8 |
| 20260507194646 | 19 | 216 | 9.7 | 17.7 | 0.00 | 0.00 | 0.00 | 72 | 1014.8 |
| 20260507194139 | 18 | 215 | 12.9 | 22.5 | 0.00 | 0.00 | 0.00 | 74 | 1014.8 |
| 20260507192617 | 18 | 266 | 11.3 | 17.7 | 0.00 | 0.00 | 0.00 | 72 | 1014.8 |
| 20260507191055 | 19 | 235 | 14.5 | 17.7 | 0.00 | 0.00 | 0.00 | 72 | 1015.1 |
| 20260507190548 | 19 | 257 | 9.7 | 17.7 | 0.00 | 0.00 | 0.00 | 70 | 1015.1 |
| 20260507190040 | 18 | 203 | 12.9 | 17.7 | 0.00 | 0.00 | 0.00 | 72 | 1015.1 |
| 20260507185533 | 19 | 237 | 11.3 | 17.7 | 0.00 | 0.00 | 0.00 | 72 | 1015.1 |
| 20260507185026 | 19 | 186 | 9.7 | 16.1 | 0.00 | 0.00 | 0.00 | 69 | 1015.1 |
| 20260507184519 | 19 | 217 | 11.3 | 16.1 | 0.00 | 0.00 | 0.00 | 70 | 1015.1 |
| 20260507184011 | 18 | 229 | 9.7 | 16.1 | 0.00 | 0.00 | 0.00 | 73 | 1015.1 |
| 20260507183503 | 19 | 239 | 6.4 | 14.5 | 0.00 | 0.00 | 0.00 | 71 | 1015.1 |
| 20260507182449 | 18 | 252 | 6.4 | 12.9 | 0.00 | 0.00 | 0.00 | 72 | 1015.1 |
| 20260507181942 | 18 | 222 | 4.8 | 14.5 | 0.00 | 0.00 | 0.00 | 71 | 1015.1 |
| 20260507180928 | 18 | 233 | 12.9 | 17.7 | 0.00 | 0.00 | 0.00 | 73 | 1015.1 |
| 20260507175913 | 18 | 266 | 6.4 | 14.5 | 0.00 | 0.00 | 0.00 | 73 | 1015.1 |
| 20260507175405 | 18 | 186 | 9.7 | 12.9 | 0.00 | 0.00 | 0.00 | 73 | 1015.1 |
| 20260507174351 | 18 | 215 | 4.8 | 14.5 | 0.00 | 0.00 | 0.00 | 76 | 1015.1 |
| 20260507172830 | 18 | 334 | 3.2 | 16.1 | 0.00 | 0.00 | 0.00 | 75 | 1015.5 |
| 20260507172322 | 18 | 214 | 9.7 | 16.1 | 0.00 | 0.00 | 0.00 | 73 | 1015.5 |
| 20260507171815 | 18 | 332 | 1.6 | 14.5 | 0.00 | 0.00 | 0.00 | 75 | 1015.1 |
| 20260507171308 | 18 | 261 | 6.4 | 12.9 | 0.00 | 0.00 | 0.00 | 72 | 1015.1 |
| 20260507170800 | 18 | 305 | 4.8 | 12.9 | 0.00 | 0.00 | 0.00 | 72 | 1015.1 |
| 20260507170253 | 18 | 199 | 6.4 | 12.9 | 0.00 | 0.00 | 0.00 | 72 | 1015.5 |
| 20260507165746 | 18 | 202 | 9.7 | 12.9 | 0.00 | 0.00 | 0.00 | 73 | 1015.1 |
| 20260507165239 | 18 | 281 | 6.4 | 11.3 | 0.00 | 0.00 | 0.00 | 73 | 1015.5 |
| 20260507163717 | 18 | 293 | 3.2 | 16.1 | 0.00 | 0.00 | 0.00 | 75 | 1015.5 |
| 20260507162702 | 17 | 211 | 8.0 | 11.3 | 0.00 | 0.00 | 0.00 | 77 | 1015.5 |
| 20260507162155 | 17 | 258 | 3.2 | 9.7 | 0.00 | 0.00 | 0.00 | 77 | 1015.5 |
| 20260507161648 | 17 | 272 | 1.6 | 11.3 | 0.00 | 0.00 | 0.00 | 78 | 1015.5 |
| 20260507161142 | 17 | 226 | 4.8 | 11.3 | 0.00 | 0.00 | 0.00 | 78 | 1015.5 |
| 20260507160634 | 17 | 182 | 3.2 | 9.7 | 0.00 | 0.00 | 0.00 | 77 | 1015.5 |
| 20260507160125 | 17 | 267 | 6.4 | 9.7 | 0.00 | 0.00 | 0.00 | 77 | 1015.5 |
| 20260507155111 | 17 | 245 | 4.8 | 11.3 | 0.00 | 0.00 | 0.00 | 78 | 1015.8 |
| 20260507154604 | 17 | 240 | 6.4 | 9.7 | 0.00 | 0.00 | 0.00 | 79 | 1015.5 |
| 20260507154057 | 17 | 235 | 3.2 | 9.7 | 0.00 | 0.00 | 0.00 | 79 | 1015.5 |
| 20260507153550 | 17 | 231 | 1.6 | 9.7 | 0.00 | 0.00 | 0.00 | 79 | 1015.5 |
| 20260507153042 | 17 | 337 | 3.2 | 9.7 | 0.00 | 0.00 | 0.00 | 79 | 1015.5 |
| 20260507152027 | 16 | 196 | 3.2 | 6.4 | 0.00 | 0.00 | 0.00 | 79 | 1015.5 |
| 20260507151521 | 16 | 148 | 4.8 | 6.4 | 0.00 | 0.00 | 0.00 | 79 | 1015.5 |
| 20260507151014 | 16 | 147 | 1.6 | 4.8 | 0.00 | 0.00 | 0.00 | 80 | 1015.5 |
| 20260507150507 | 16 | 219 | 1.6 | 6.4 | 0.00 | 0.00 | 0.00 | 80 | 1015.5 |
| 20260507145959 | 16 | 244 | 0.0 | 6.4 | 0.00 | 0.00 | 0.00 | 80 | 1015.5 |
| 20260507145452 | 16 | 175 | 3.2 | 4.8 | 0.00 | 0.00 | 0.00 | 79 | 1015.5 |
| 20260507144944 | 16 | 193 | 3.2 | 4.8 | 0.00 | 0.00 | 0.00 | 79 | 1015.5 |
| 20260507144437 | 16 | 239 | 1.6 | 3.2 | 0.00 | 0.00 | 0.00 | 79 | 1015.5 |
| 20260507143930 | 16 | 310 | 0.0 | 1.6 | 0.00 | 0.00 | 0.00 | 81 | 1015.5 |
| 20260507143422 | 16 | 311 | 0.0 | 1.6 | 0.00 | 0.00 | 0.00 | 80 | 1015.5 |
| 20260507142915 | 16 | 315 | 0.0 | 1.6 | 0.00 | 0.00 | 0.00 | 81 | 1015.5 |
| 20260507142408 | 16 | 338 | 1.6 | 1.6 | 0.00 | 0.00 | 0.00 | 81 | 1015.5 |
| 20260507141900 | 15 | 338 | 0.0 | 1.6 | 0.00 | 0.00 | 0.00 | 81 | 1015.1 |
| 20260507141353 | 15 | 338 | 0.0 | 1.6 | 0.00 | 0.00 | 0.00 | 82 | 1015.1 |
| 20260507140339 | 14 | 338 | 0.0 | 1.6 | 0.00 | 0.00 | 0.00 | 83 | 1015.1 |
| 20260507135831 | 14 | 338 | 0.0 | 3.2 | 0.00 | 0.00 | 0.00 | 84 | 1015.1 |
| 20260507134817 | 13 | 332 | 1.6 | 3.2 | 0.00 | 0.00 | 0.00 | 84 | 1015.1 |
| 20260507134310 | 13 | 333 | 1.6 | 1.6 | 0.00 | 0.00 | 0.00 | 85 | 1015.1 |
| 20260507133803 | 13 | 329 | 1.6 | 3.2 | 0.00 | 0.00 | 0.00 | 85 | 1015.1 |
| 20260507132747 | 12 | 330 | 0.0 | 3.2 | 0.00 | 0.00 | 0.00 | 86 | 1015.1 |
| 20260507132240 | 12 | 339 | 1.6 | 3.2 | 0.00 | 0.00 | 0.00 | 87 | 1015.1 |
| 20260507130718 | 12 | 328 | 3.2 | 3.2 | 0.00 | 0.00 | 0.00 | 87 | 1014.8 |
| 20260507125157 | 12 | 328 | 1.6 | 3.2 | 0.00 | 0.00 | 0.00 | 87 | 1014.8 |
| 20260507124650 | 12 | 328 | 3.2 | 3.2 | 0.00 | 0.00 | 0.00 | 87 | 1014.8 |
| 20260507124142 | 12 | 325 | 1.6 | 3.2 | 0.00 | 0.00 | 0.00 | 87 | 1014.8 |
| 20260507123635 | 12 | 323 | 1.6 | 3.2 | 0.00 | 0.00 | 0.00 | 87 | 1014.8 |
| 20260507123128 | 12 | 319 | 0.0 | 3.2 | 0.00 | 0.00 | 0.00 | 87 | 1014.5 |
| 20260507122113 | 12 | 323 | 0.0 | 3.2 | 0.00 | 0.00 | 0.00 | 87 | 1014.8 |
| 20260507121605 | 12 | 331 | 1.6 | 1.6 | 0.00 | 0.00 | 0.00 | 87 | 1014.8 |
| 20260507121058 | 12 | 331 | 0.0 | 1.6 | 0.00 | 0.00 | 0.00 | 87 | 1014.8 |
| 20260507120551 | 12 | 331 | 0.0 | 1.6 | 0.00 | 0.00 | 0.00 | 87 | 1014.8 |
| 20260507120044 | 12 | 331 | 0.0 | 0.0 | 0.00 | 0.00 | 0.00 | 86 | 1014.5 |
| 20260507115537 | 12 | 331 | 0.0 | 1.6 | 0.00 | 0.00 | 0.00 | 86 | 1014.8 |
| 20260507115029 | 12 | 331 | 0.0 | 1.6 | 0.00 | 0.00 | 0.00 | 86 | 1014.8 |
| 20260507114522 | 12 | 337 | 1.6 | 1.6 | 0.00 | 0.00 | 0.00 | 86 | 1014.8 |
| 20260507114015 | 12 | 337 | 0.0 | 1.6 | 0.00 | 0.00 | 0.00 | 86 | 1014.8 |
| 20260507113508 | 12 | 337 | 0.0 | 1.6 | 0.00 | 0.00 | 0.00 | 85 | 1014.8 |
| 20260507113001 | 12 | 337 | 0.0 | 1.6 | 0.00 | 0.00 | 0.00 | 85 | 1014.8 |
| 20260507112453 | 12 | 337 | 0.0 | 3.2 | 0.00 | 0.00 | 0.00 | 86 | 1014.8 |
| 20260507111946 | 12 | 332 | 1.6 | 3.2 | 0.00 | 0.00 | 0.00 | 86 | 1014.8 |
| 20260507110931 | 12 | 325 | 1.6 | 4.8 | 0.00 | 0.00 | 0.00 | 85 | 1015.1 |
| 20260507105916 | 12 | 329 | 1.6 | 3.2 | 0.00 | 0.00 | 0.00 | 85 | 1015.1 |
| 20260507105409 | 13 | 329 | 0.0 | 1.6 | 0.00 | 0.00 | 0.00 | 85 | 1014.8 |
| 20260507104902 | 13 | 329 | 0.0 | 1.6 | 0.00 | 0.00 | 0.00 | 86 | 1015.1 |
| 20260507104355 | 13 | 329 | 1.6 | 1.6 | 0.00 | 0.00 | 0.00 | 86 | 1015.1 |
| 20260507103848 | 13 | 329 | 0.0 | 1.6 | 0.00 | 0.00 | 0.00 | 86 | 1015.1 |
| 20260507103341 | 13 | 335 | 0.0 | 1.6 | 0.00 | 0.00 | 0.00 | 85 | 1015.1 |
| 20260507102833 | 13 | 336 | 0.0 | 1.6 | 0.00 | 0.00 | 0.00 | 86 | 1015.1 |
| 20260507101819 | 13 | 335 | 0.0 | 3.2 | 0.00 | 0.00 | 0.00 | 86 | 1015.1 |
| 20260507101311 | 13 | 4 | 0.0 | 3.2 | 0.00 | 0.00 | 0.00 | 87 | 1015.1 |
| 20260507100804 | 13 | 350 | 0.0 | 3.2 | 0.00 | 0.00 | 0.00 | 87 | 1015.1 |
| 20260507100257 | 13 | 335 | 0.0 | 1.6 | 0.00 | 0.00 | 0.00 | 88 | 1015.1 |
| 20260507095750 | 13 | 335 | 0.0 | 3.2 | 0.00 | 0.00 | 0.00 | 88 | 1015.1 |